SCP
1 1 0 0 0 0 0 0 0 0 0 0 0 0 0 0 0 0 0 0 0 0 0 0 0 0 0 0 0 0 0 0 0 0 0 0 0 0 0 0 0 0 0 0 0 1 1 1 1
1 0 0 0 0 0 0 0 0 0 0 0 0 0 0 0 0 0 0 0 0 0 0 0 0 0 0 0 0 0 0 0 0 0 0 0 0 0 0 0 0 0 0 0 0 0 1 1 1
0 0 0 0 0 0 0 0 0 0 0 0 0 0 0 0 0 0 0 0 0 0 0 0 0 0 0 0 0 0 0 0 0 0 0 0 0 0 0 0 0 0 0 0 0 0 0 0 1
0 0 0 0 0 0 0 0 0 0 0 0 0 0 0 0 0 0 0 0 0 0 0 0 0 0 0 1 0 0 0 0 0 0 0 0 0 0 0 0 0 0 0 0 0 0 0 0 0
0 0 0 0 0 0 0 0 0 0 0 0 0 0 0 0 0 0 0 0 0 0 0 0 0 1 1 1 1 1 1 0 0 0 0 0 0 0 0 0 0 0 0 0 0 0 0 0 0
0 0 0 0 0 0 0 0 0 0 0 0 0 0 0 0 0 0 0 0 0 0 1 1 1 1 1 1 1 1 1 1 0 0 0 0 0 0 0 0 0 0 0 0 0 0 0 0 0
0 0 0 0 0 0 0 0 0 0 0 0 0 0 0 0 0 0 0 1 1 1 1 1 1 1 1 1 1 1 1 1 1 1 1 0 0 0 0 0 0 0 0 0 0 0 0 0 0
0 0 0 0 0 0 0 0 0 0 0 0 0 0 0 0 0 0 0 1 1 1 1 0 1 1 1 1 1 1 1 1 1 1 1 1 1 1 1 0 0 0 0 0 0 0 0 0 0
0 0 0 0 0 0 0 0 0 0 0 0 0 0 0 0 0 0 0 1 1 1 1 0 1 1 1 1 1 1 1 1 1 1 1 1 1 1 1 1 0 0 0 0 0 0 0 0 0
0 0 0 0 0 0 0 0 0 0 0 0 0 0 0 0 0 0 0 0 0 0 0 1 1 1 1 1 1 1 1 1 1 1 1 1 1 1 1 1 1 1 1 0 0 0 0 0 0
0 0 0 0 0 0 0 0 0 0 0 0 0 0 0 0 0 0 0 0 0 0 0 1 1 1 1 1 1 1 1 1 1 1 1 1 1 1 1 1 1 1 1 1 1 1 1 0 0
0 0 0 0 0 0 0 0 0 0 0 0 0 0 0 0 0 0 0 0 0 0 0 0 1 1 1 1 1 1 1 1 1 1 1 1 1 1 1 1 1 1 1 1 1 1 1 1 0
0 0 0 0 0 0 0 0 0 0 0 0 0 0 0 0 0 0 0 0 0 0 0 0 0 0 1 1 1 1 0 1 1 1 1 1 1 1 1 1 1 1 1 1 1 1 1 1 1
0 0 0 0 0 0 0 0 0 0 0 0 0 0 0 0 0 0 0 0 0 0 0 0 0 0 0 0 0 0 0 1 1 1 1 1 1 1 1 1 1 1 1 1 1 1 1 1 1
0 0 0 0 0 0 0 0 0 0 0 0 0 0 0 0 0 0 0 0 0 0 0 0 0 0 0 0 0 0 0 0 1 1 1 1 1 1 1 1 1 1 1 1 1 1 1 1 1
0 0 0 0 0 0 0 0 0 0 0 0 0 0 0 0 0 0 0 0 0 0 0 0 0 0 0 0 0 0 0 0 1 1 1 1 1 1 1 1 1 1 1 1 1 1 1 1 1
0 0 0 0 0 0 0 0 0 0 0 0 0 0 0 0 0 0 0 0 0 0 0 0 0 0 0 0 0 0 0 0 0 1 1 1 1 1 1 1 1 1 1 1 1 1 1 1 1
0 0 0 0 0 0 0 0 0 0 0 0 0 0 0 0 0 0 0 0 0 0 0 0 0 0 0 0 0 0 0 0 0 0 1 1 1 1 1 1 1 1 1 1 1 1 1 1 1
0 0 0 0 0 0 0 0 0 0 0 0 0 0 0 0 0 0 0 0 0 0 0 0 0 0 0 0 0 0 0 0 0 0 0 0 1 1 1 1 1 1 1 1 1 1 1 1 1
0 0 0 0 0 0 0 0 0 0 0 0 0 0 0 0 0 0 0 0 0 0 0 0 0 0 0 0 0 0 0 0 0 0 0 0 0 1 1 1 1 1 1 1 1 1 1 1 1
0 0 0 0 0 0 0 0 0 0 0 0 0 0 0 0 0 0 0 0 0 0 0 0 0 0 0 0 0 0 0 0 0 0 0 0 0 0 1 1 1 1 1 1 1 1 1 1 1
0 0 0 0 0 0 0 0 0 0 0 0 0 0 0 0 0 0 0 0 0 0 0 0 0 0 0 0 0 0 0 0 0 0 0 0 0 0 0 0 1 1 1 1 1 1 1 1 1
0 0 0 0 0 0 0 0 0 0 0 0 0 0 0 0 0 0 0 0 0 0 0 0 0 0 0 0 0 0 0 0 0 0 0 0 0 0 0 0 1 1 1 1 1 1 1 1 1
0 0 0 0 0 0 0 0 0 0 0 0 0 0 0 0 0 0 0 0 0 0 0 0 0 0 0 0 0 0 0 0 0 0 0 0 0 0 0 0 1 1 1 1 1 1 1 1 1
0 0 0 0 0 0 0 0 0 0 0 0 0 0 0 0 0 0 0 0 0 0 0 0 0 0 0 0 0 0 0 0 0 0 0 0 0 0 0 0 1 1 1 1 1 1 1 1 1
0 0 0 0 0 0 0 0 0 0 0 0 0 0 0 0 0 0 0 0 0 0 0 0 0 0 0 0 0 0 0 0 0 0 0 0 0 1 0 0 1 1 1 1 1 1 1 1 1
0 0 0 0 0 0 0 0 0 0 0 0 0 0 0 0 0 0 0 0 0 0 0 0 0 0 0 0 0 0 0 0 0 0 0 0 0 0 0 0 1 1 1 1 1 1 1 1 1
0 0 0 0 0 0 0 0 0 0 0 0 0 0 0 0 0 0 0 0 0 0 0 0 0 0 0 0 0 0 0 0 0 0 0 0 0 0 0 0 0 1 1 1 1 1 1 1 1
0 0 0 0 0 0 0 0 0 0 0 0 0 0 0 0 0 0 0 0 0 0 0 0 0 0 0 0 0 0 0 0 0 0 0 0 0 0 0 0 0 0 0 0 0 0 1 1 1
0 0 0 0 0 0 0 0 0 0 0 0 0 0 0 0 0 0 0 0 0 0 0 0 0 0 0 0 0 0 0 0 0 0 0 0 0 0 0 0 0 0 0 0 0 0 0 0 1
Wind_Speed
5 4 2 2 4 5 4 5 3 3 4 3 5 6 6 4 2 0 1 4 5 6 5 7 10 10 10 10 9 9 9 9 8 8 8 8 8 7 7 6 6 6 5 5 4 4 4 4 5
4 3 2 3 5 4 4 6 6 5 2 2 5 6 6 5 3 2 1 2 5 6 4 5 9 10 10 9 9 9 8 8 8 8 7 7 7 7 6 6 6 5 5 5 4 3 3 3 4
4 2 3 4 4 2 2 4 3 4 6 4 4 5 5 4 4 1 1 4 5 4 3 4 9 9 9 9 9 8 8 8 8 7 7 7 7 7 6 6 5 5 5 4 4 3 2 2 3
3 3 4 6 5 3 2 3 4 3 6 8 4 5 5 6 5 2 3 5 4 3 3 3 8 8 8 8 8 8 8 8 8 7 7 7 7 7 7 6 6 5 5 4 3 3 2 2 2
3 4 6 4 3 3 3 6 7 6 5 7 5 5 5 7 8 7 5 4 2 1 1 1 6 7 8 8 8 8 8 8 8 8 8 8 8 7 7 7 6 6 5 5 4 3 3 2 0
4 4 5 2 1 1 3 5 5 7 6 7 7 4 4 7 10 8 6 5 5 4 4 4 3 4 6 7 8 8 8 9 9 9 8 8 8 8 8 8 7 7 6 5 5 4 4 3 1
4 4 4 3 1 1 2 3 5 5 7 7 6 4 3 7 8 7 7 7 7 6 5 5 5 4 4 5 7 8 9 9 9 9 9 9 9 8 8 8 8 8 7 7 6 5 5 4 3
4 5 4 2 2 1 2 3 4 6 4 5 5 5 4 5 5 6 7 8 7 6 6 5 5 5 4 5 7 8 10 11 11 11 10 10 10 9 9 9 9 9 9 8 8 7 6 5 5
3 5 2 3 3 2 2 3 3 4 5 6 6 5 4 4 5 7 7 7 6 5 4 4 4 4 5 5 6 7 8 8 9 8 10 9 5 5 5 8 10 10 10 9 9 8 7 6 5
4 4 2 1 3 5 3 4 3 4 5 5 5 6 6 6 7 8 7 6 5 5 4 3 4 4 4 4 4 3 4 4 3 3 4 3 3 4 6 7 11 12 11 11 10 10 8 5 1
4 4 3 3 4 6 5 3 3 4 4 3 3 4 5 7 7 7 6 4 4 4 5 5 4 4 3 3 3 2 2 3 3 3 4 3 3 3 4 3 5 6 8 5 6 5 3 2 2
6 4 4 4 4 4 5 4 4 4 3 3 3 3 4 7 6 6 5 5 5 5 5 5 5 4 4 3 3 2 2 2 2 3 3 2 2 3 3 3 4 4 3 3 3 3 3 3 3
5 4 5 7 9 7 7 5 5 3 3 4 5 6 6 6 5 5 5 5 6 6 7 6 6 4 4 3 3 3 2 3 3 3 3 3 3 4 4 3 4 4 4 4 4 4 4 4 4
6 7 6 6 6 4 6 3 4 2 3 5 6 6 5 5 5 5 6 6 6 7 8 7 7 5 5 3 3 3 3 3 3 3 4 4 4 4 4 4 4 4 4 4 4 5 5 4 4
7 7 5 2 2 3 5 5 2 1 4 6 5 4 5 4 5 5 5 5 6 7 7 7 7 5 6 5 5 4 3 3 3 3 4 4 4 5 4 4 4 4 4 4 3 4 3 4 4
4 5 2 2 3 2 3 2 0 2 5 5 3 3 4 4 4 4 5 5 6 6 7 7 8 7 7 6 5 4 4 4 3 3 3 4 5 5 4 4 4 4 3 3 4 3 3 3 3
2 2 3 2 3 3 3 3 1 2 5 4 2 2 3 4 5 5 6 6 6 6 7 7 7 7 7 7 5 5 4 4 3 3 3 4 4 4 4 4 4 4 3 4 5 3 3 3 3
4 3 3 3 3 3 3 3 2 2 4 3 1 2 3 4 5 6 6 6 6 6 6 7 7 7 7 5 5 4 4 3 3 3 4 4 3 4 3 3 4 3 3 4 4 4 4 3 3
4 4 2 1 2 4 3 3 2 2 2 2 1 2 3 5 5 6 6 7 7 7 7 7 7 7 6 4 4 4 4 4 3 3 4 4 4 4 3 3 3 3 4 5 5 4 4 4 2
5 4 3 3 3 4 3 1 0 1 1 2 1 2 3 5 6 7 7 7 7 7 7 7 7 7 7 5 4 3 4 3 3 3 4 4 4 4 3 3 3 3 3 5 5 5 4 3 4
3 3 3 3 3 4 3 2 2 1 0 1 1 2 3 4 6 7 7 7 7 7 8 8 8 8 7 7 5 4 3 3 3 3 3 4 4 4 3 4 3 3 4 4 6 6 7 5 4
1 0 3 5 4 0 2 3 5 3 3 3 3 3 5 5 5 6 7 8 8 7 7 7 8 7 7 6 5 6 4 4 4 3 3 5 4 4 3 3 4 4 4 4 5 6 5 5 4
2 3 3 3 4 2 1 1 7 1 4 5 5 5 5 5 5 6 7 7 7 7 7 7 8 7 7 7 6 6 5 4 4 4 4 4 4 4 4 3 3 3 3 4 5 5 6 5 5
4 6 6 5 5 1 2 3 7 4 5 4 4 4 5 5 5 6 6 6 6 6 7 7 8 8 7 7 7 6 6 6 6 5 5 4 4 3 4 4 3 3 3 4 5 5 6 6 6
6 6 5 5 4 4 2 2 8 5 5 4 4 5 5 5 5 6 7 7 7 7 7 7 7 8 8 8 7 7 6 6 5 5 5 5 4 3 5 4 3 3 3 4 4 5 5 6 6
3 6 6 2 3 5 3 4 7 3 3 3 3 4 4 5 5 5 6 6 6 7 7 7 7 7 7 7 7 7 7 4 4 4 4 4 4 4 5 5 4 4 3 3 3 3 4 4 6
3 3 4 6 1 2 5 6 7 1 2 3 3 4 5 6 5 5 6 5 5 6 6 6 6 7 7 7 7 7 7 6 6 5 5 4 4 4 5 5 5 4 4 3 2 2 3 3 4
4 7 4 4 2 3 7 5 5 5 6 6 5 6 6 6 5 5 5 5 5 5 5 5 5 5 5 6 6 6 7 7 6 6 7 7 7 6 7 6 6 5 4 4 2 1 2 3 3
3 4 5 4 4 4 4 8 6 6 6 6 7 6 6 6 6 5 5 4 4 4 4 4 5 5 5 6 6 6 6 6 6 6 7 6 6 7 7 7 6 6 6 5 3 2 1 2 2
2 4 6 4 2 3 3 10 5 5 5 5 6 6 5 5 5 5 5 4 4 4 4 4 4 4 4 5 5 6 6 6 7 7 7 7 7 7 7 6 6 6 6 6 5 4 2 1 1
Wind_Direction
148 121 98 65 49 47 21 343 351 17 44 28 53 68 78 65 63 109 342 130 134 141 154 165 170 169 169 168 167 165 160 158 157 156 156 157 156 155 155 156 155 153 151 147 141 130 115 101 92
117 116 78 58 69 50 1 349 17 27 70 115 56 58 63 54 39 51 87 140 137 143 146 161 171 173 174 174 174 173 171 169 168 168 168 168 167 167 166 167 167 166 164 160 156 151 131 108 94
123 80 78 62 68 82 12 346 7 41 38 40 56 47 54 29 2 332 195 140 133 140 143 171 175 175 177 179 181 181 179 178 178 178 178 179 178 178 179 180 181 180 177 175 171 170 154 121 98
103 56 52 63 59 27 14 332 336 4 34 26 53 55 55 21 350 351 108 121 131 140 147 184 183 182 183 186 187 187 187 187 188 189 187 186 186 189 192 192 191 190 192 190 185 191 186 155 106
70 77 62 57 46 14 16 3 9 28 39 20 41 66 38 3 14 40 66 79 84 90 94 226 198 195 196 197 197 197 197 197 199 199 198 196 197 199 200 200 200 201 203 205 205 212 213 207 155
63 69 80 89 54 6 21 13 14 30 28 16 21 68 51 7 22 28 43 52 48 43 30 2 287 236 222 215 212 210 210 211 211 211 210 209 208 208 208 209 209 209 210 213 215 225 232 234 247
101 88 108 130 109 24 46 35 29 16 31 15 359 61 46 15 17 32 46 50 50 42 30 11 356 335 301 267 244 233 227 224 222 222 221 219 217 217 217 218 218 218 217 217 221 229 238 245 253
120 98 92 116 130 71 11 63 41 27 35 14 25 51 26 358 16 47 54 52 45 34 21 7 357 349 335 313 282 262 247 237 231 230 228 226 225 227 228 225 226 226 224 224 227 232 238 245 252
88 79 128 184 165 135 41 84 63 42 53 45 45 56 41 24 36 51 49 46 41 31 15 3 346 335 328 312 299 291 277 261 251 245 242 236 229 228 234 233 232 234 233 231 231 234 239 245 255
78 106 170 156 145 127 84 73 95 73 48 47 49 48 45 47 46 50 46 39 26 10 356 354 339 325 321 316 318 313 309 306 284 263 257 245 226 224 229 234 239 239 238 237 236 235 239 243 241
79 115 115 87 106 111 99 75 49 104 59 49 71 46 39 46 43 42 35 22 7 349 347 342 333 322 322 315 312 305 305 302 294 273 255 243 232 232 234 226 244 247 246 239 240 240 222 205 205
87 62 91 112 108 95 105 107 76 59 92 89 90 71 49 44 34 27 22 10 356 353 344 335 329 323 321 315 305 292 297 290 281 277 269 247 234 228 224 224 222 223 228 221 215 213 213 211 212
85 92 67 87 86 88 90 86 97 72 88 85 75 58 52 45 32 19 12 6 359 352 342 335 328 324 320 316 307 313 291 278 276 282 274 250 241 240 229 228 223 218 214 214 213 213 213 214 216
99 95 94 83 84 87 95 77 83 97 88 75 66 55 46 43 28 18 8 359 351 342 334 329 324 326 328 317 305 296 291 288 281 268 269 268 249 242 236 235 229 223 216 214 210 211 213 215 212
98 92 73 65 83 119 102 55 44 108 91 75 65 56 44 33 23 11 350 342 336 331 327 329 326 337 328 315 305 302 291 290 280 270 267 267 259 246 239 238 234 226 213 209 207 210 207 215 215
82 91 131 211 148 147 115 134 298 104 98 84 66 45 28 8 0 348 341 337 332 330 330 327 333 332 322 312 303 297 293 291 281 276 267 261 256 246 237 236 238 224 207 201 200 198 200 216 216
91 161 204 197 178 139 136 166 184 108 110 99 68 30 7 347 342 339 338 335 331 329 327 325 325 326 324 319 310 300 296 291 285 283 275 268 261 248 233 232 235 222 212 207 211 194 187 206 219
201 200 195 197 173 118 125 142 107 94 113 113 73 10 343 333 323 326 331 332 331 329 329 328 327 328 328 324 320 312 305 295 288 282 282 284 276 264 245 240 236 222 219 216 205 194 190 191 203
155 151 150 124 107 110 135 140 146 121 107 106 33 338 327 318 316 327 328 329 332 335 337 333 334 332 336 332 329 321 314 307 303 293 291 291 284 273 251 251 239 222 220 218 207 191 193 194 158
100 116 115 79 62 95 111 117 202 185 183 194 216 299 313 319 328 331 331 335 335 331 331 332 334 332 334 327 310 288 287 290 285 296 304 296 290 281 263 241 236 225 224 223 213 193 179 187 173
70 144 161 144 68 61 86 326 254 258 281 249 272 286 299 307 318 321 326 329 331 332 331 334 330 329 330 331 324 318 315 311 320 322 315 309 302 288 272 260 245 230 220 223 216 205 190 189 184
118 269 133 131 116 213 133 284 277 243 274 271 275 292 296 303 313 315 320 325 328 327 328 331 332 331 331 335 339 341 337 324 309 309 304 309 310 306 292 273 252 236 226 226 223 214 204 185 182
133 58 80 108 121 69 42 227 289 291 264 264 261 272 285 293 302 309 315 315 318 324 330 333 336 337 337 341 342 340 334 319 314 317 320 323 322 314 310 293 269 249 235 230 225 216 206 197 188
107 69 56 50 70 9 235 186 281 234 229 250 252 264 279 292 302 308 312 316 318 326 334 337 341 338 341 345 345 344 338 333 333 336 336 332 326 319 322 309 287 267 250 236 227 219 208 207 201
64 75 33 7 10 268 275 214 256 251 230 225 237 255 274 289 299 306 313 320 324 328 331 335 341 338 341 347 348 345 340 336 336 335 332 332 332 328 329 326 309 291 272 250 228 218 215 208 203
73 119 140 195 247 290 320 254 260 261 244 228 232 252 276 290 294 297 300 308 315 320 328 336 339 337 343 349 348 347 348 345 341 340 341 336 329 324 329 330 325 316 306 282 239 224 217 207 207
109 94 148 129 159 301 295 290 303 235 256 246 254 267 275 280 287 293 302 308 311 318 324 330 336 341 345 348 348 353 358 360 355 353 351 347 344 341 345 340 340 338 336 326 268 230 223 204 204
94 137 91 98 112 307 304 291 268 262 253 251 250 257 267 278 287 295 302 305 308 311 318 332 341 341 343 349 352 357 358 0 0 4 5 0 353 351 352 355 356 356 351 341 326 269 229 204 200
99 80 95 101 140 153 298 282 233 229 232 232 241 246 256 267 278 285 293 302 308 318 326 335 342 346 348 350 350 355 354 356 1 6 1 356 355 356 358 358 1 3 3 357 355 349 289 204 193
156 149 142 140 200 161 194 270 267 237 238 228 241 249 255 261 272 279 288 304 316 323 327 331 337 342 342 345 351 354 354 357 3 360 354 354 358 358 359 357 2 4 5 4 7 8 16 63 147